time_stamp(utc),avg(mph),gust(mph),direction(deg),12m_air_temp(f),sonic_u(cm/s),sonic_v(cm/s),sonic_w(cm/s),pressure,2m_air_temp(f),pyranometer(W/m^2)
"2020-05-09 00:03:21+00",9.0,10.0,,51,254,-302,-4,1002.38,50.8,0
"2020-05-09 00:08:21+00",8.1,9.1,,51.1,202,-285,-2,1002.22,50.8,0
"2020-05-09 00:13:21+00",8.8,9.8,,51.4,199,-335,-5,1002.12,51,0
"2020-05-09 00:18:21+00",8.7,10.7,,51.5,176,-339,-10,1002.14,51.1,0
"2020-05-09 00:23:21+00",7.4,9.4,,51.6,87,-295,-2,1001.94,51.3,0
"2020-05-09 00:28:21+00",10.3,12.3,,51.8,99,-432,-22,1001.85,51.4,0
"2020-05-09 00:33:21+00",9.0,11.0,,52,55,-362,-6,1001.82,51.5,0
"2020-05-09 00:38:21+00",8.6,12.6,,52.3,-35,-365,-11,1001.78,51.8,0
"2020-05-09 00:43:21+00",10.3,13.3,,52.6,-39,-442,-29,1001.71,52,0
"2020-05-09 00:48:21+00",8.5,11.5,,52.8,-80,-374,-2,1001.69,52.3,0
"2020-05-09 00:53:21+00",9.8,14.8,,53.1,-94,-425,-7,1001.58,52.6,0
"2020-05-09 00:58:21+00",9.5,12.5,,53.2,-117,-411,7,1001.51,52.8,0
"2020-05-09 01:03:21+00",11.7,14.7,,53.4,-139,-488,-9,1001.37,52.9,0
"2020-05-09 01:08:21+00",14.0,17.0,,53.7,-202,-577,-16,1001.19,53.1,0
"2020-05-09 01:13:21+00",12.2,15.2,,53.9,-144,-525,-8,1001.1,53.3,0
"2020-05-09 01:18:21+00",13.5,15.5,,53.9,-221,-545,-6,1001,53.5,0
"2020-05-09 01:23:21+00",13.9,15.9,,54.2,-299,-556,12,1001.12,53.6,0
"2020-05-09 01:28:21+00",16.1,19.1,,54.7,-401,-633,23,1001.05,54,0
"2020-05-09 01:33:21+00",18.9,20.9,,55.3,-496,-723,12,1000.98,54.4,0
"2020-05-09 01:38:21+00",20.9,22.9,,55.6,-617,-725,23,1000.88,54.7,0
"2020-05-09 01:43:21+00",23.2,26.2,,55.7,-683,-795,9,1000.79,55,0
"2020-05-09 01:48:21+00",20.6,23.6,,55.5,-633,-653,27,1000.79,55,0
"2020-05-09 01:53:21+00",21.4,23.4,,55.4,-672,-637,19,1000.9,54.9,0
"2020-05-09 01:58:21+00",21.6,23.6,,55.4,-688,-644,23,1000.87,54.8,0
"2020-05-09 02:03:21+00",20.5,22.5,,55.3,-653,-623,22,1000.86,54.8,0
"2020-05-09 02:08:21+00",20.0,22.0,,55.3,-648,-592,17,1000.81,54.8,0
"2020-05-09 02:13:21+00",17.6,19.6,,55.1,-538,-564,26,1000.78,54.7,0
"2020-05-09 02:18:21+00",17.8,20.8,,55,-556,-548,21,1000.57,54.6,0
"2020-05-09 02:23:21+00",17.4,19.4,,55,-535,-544,14,1000.43,54.5,0
"2020-05-09 02:28:21+00",17.1,19.1,,55,-547,-511,16,1000.29,54.5,0
"2020-05-09 02:33:21+00",18.1,20.1,,55,-535,-613,18,1000.17,54.5,0
"2020-05-09 02:38:21+00",18.7,20.7,,54.9,-555,-616,22,1000.07,54.4,0
"2020-05-09 02:43:21+00",19.3,21.3,,54.7,-582,-625,16,999.85,54.4,0
"2020-05-09 02:48:21+00",17.4,19.4,,54.6,-520,-576,17,999.49,54.3,0
"2020-05-09 02:53:21+00",18.7,22.7,,54.6,-560,-635,15,999.53,54.2,0
"2020-05-09 02:58:21+00",21.2,23.2,,54.8,-657,-654,17,999.43,54.3,0
"2020-05-09 03:03:21+00",21.3,23.3,,54.8,-737,-594,28,999.48,54.3,0
"2020-05-09 03:08:21+00",32.2,36.2,,50.2,-1399,456,41,999.96,53.1,0
"2020-05-09 03:13:21+00",32.0,35.0,,48.7,-1383,451,36,1000.29,50.9,0
"2020-05-09 03:18:21+00",30.7,35.7,,48.4,-1138,796,71,1000.4,49.8,0
"2020-05-09 03:23:21+00",34.7,38.7,,48.3,-1280,948,70,1000.56,48.9,0
"2020-05-09 03:28:21+00",32.9,35.9,,48.1,-1210,866,100,1000.83,48.5,0
"2020-05-09 03:33:21+00",33.8,38.8,,47.9,-1170,957,92,1000.9,48.2,0
"2020-05-09 03:38:21+00",30.8,33.8,,47.9,-1101,842,108,1001.02,48.1,0
"2020-05-09 03:43:21+00",28.8,33.8,,47.7,-1034,810,62,1001.02,48.1,0
"2020-05-09 03:48:21+00",32.7,35.7,,47.5,-1137,903,74,1001.05,47.9,0
"2020-05-09 03:53:21+00",31.4,35.4,,47.2,-1093,900,67,1001.33,47.7,0
"2020-05-09 03:58:21+00",29.4,32.4,,47.3,-1064,813,89,1001.57,47.7,0
"2020-05-09 04:03:21+00",29.6,33.6,,47.2,-1090,754,62,1001.73,47.5,0
"2020-05-09 04:08:21+00",33.5,36.5,,47,-1193,896,34,1001.95,47.3,0
"2020-05-09 04:13:21+00",27.1,30.1,,47.2,-951,763,43,1002.04,47.3,0
"2020-05-09 04:18:21+00",24.1,27.1,,47.2,-807,720,87,1002.14,47.3,0
"2020-05-09 04:23:21+00",29.1,32.1,,46.7,-999,851,59,1002.21,47,0
"2020-05-09 04:28:21+00",28.7,33.7,,46.5,-828,975,33,1002.3,46.7,0
"2020-05-09 04:33:21+00",24.3,27.3,,46.4,-717,808,71,1002.48,46.6,0
"2020-05-09 04:38:21+00",26.6,29.6,,46.3,-836,839,55,1002.58,46.4,0
"2020-05-09 04:43:21+00",25.7,29.7,,46,-745,873,71,1002.67,46.1,0
"2020-05-09 04:48:21+00",26.8,27.8,,46,-825,847,70,1002.72,46.1,0
"2020-05-09 04:53:21+00",35.4,39.4,,45.9,-1276,977,60,1002.9,46.1,0
"2020-05-09 04:58:21+00",43.2,48.2,,41.4,-1185,1499,56,1003.47,43.6,0
"2020-05-09 05:03:21+00",29.8,37.8,,41.1,-876,1020,101,1003.58,42.2,0
"2020-05-09 05:08:21+00",33.9,40.9,,40.1,-922,1183,71,1003.99,41,0
"2020-05-09 05:13:21+00",32.0,36.0,,39.6,-946,1060,90,1004.34,40.5,0
"2020-05-09 05:18:21+00",32.9,38.9,,39.2,-917,1118,106,1004.67,40.1,0
"2020-05-09 05:23:21+00",30.9,34.9,,39.1,-818,1097,45,1005.03,39.7,0
"2020-05-09 05:28:21+00",28.5,36.5,,38.9,-823,947,61,1005.29,39.4,0
"2020-05-09 05:33:21+00",27.8,31.8,,38.6,-803,922,72,1005.38,39.2,0
"2020-05-09 05:38:21+00",30.8,35.8,,38.4,-867,1061,74,1005.69,39,0
"2020-05-09 05:43:21+00",32.8,36.8,,38.5,-907,1135,77,1005.89,38.8,0
"2020-05-09 05:48:21+00",36.4,40.4,,38.2,-1043,1229,81,1005.85,38.8,0
"2020-05-09 05:53:21+00",36.9,41.9,,37.9,-1039,1252,100,1005.94,38.5,0
"2020-05-09 05:58:21+00",28.0,36.0,,37.8,-782,964,92,1006.4,38.2,0
"2020-05-09 06:03:21+00",32.4,37.4,,37.5,-1001,1051,81,1006.33,37.9,0
"2020-05-09 06:08:21+00",29.2,34.2,,37.9,-892,965,80,1006.47,38.1,0
"2020-05-09 06:13:21+00",27.8,30.8,,37.9,-795,941,49,1006.43,38.3,0
"2020-05-09 06:18:21+00",28.8,33.8,,38.1,-981,893,80,1006.62,38.5,0
"2020-05-09 06:23:21+00",28.1,30.1,,37.9,-925,816,78,1006.25,38.4,0
"2020-05-09 06:28:21+00",28.9,32.9,,38,-1002,819,65,1006.75,38.4,0
"2020-05-09 06:33:21+00",28.6,33.6,,38.2,-1034,790,58,1006.81,38.5,0
"2020-05-09 06:38:21+00",31.0,36.0,,38.2,-1017,973,57,1006.88,38.6,0
"2020-05-09 06:43:21+00",27.3,30.3,,38.1,-916,807,51,1007.2,38.4,0
"2020-05-09 06:48:21+00",27.7,31.7,,38.1,-986,786,64,1007.46,38.4,0
"2020-05-09 06:53:21+00",30.2,33.2,,37.9,-1059,832,58,1007.26,38.2,0
"2020-05-09 06:58:21+00",27.5,31.5,,37.9,-1027,704,85,1007.54,38.2,0
"2020-05-09 07:03:21+00",26.7,30.7,,37.8,-977,737,61,1007.64,38.1,0
"2020-05-09 07:08:21+00",26.9,28.9,,37.9,-951,756,58,1007.78,38.1,0
"2020-05-09 07:13:21+00",24.9,27.9,,38,-914,650,56,1007.88,38.2,0
"2020-05-09 07:18:21+00",21.9,26.9,,37.8,-833,549,82,1008.04,38,0
"2020-05-09 07:23:21+00",26.6,29.6,,37.8,-969,740,69,1008.08,37.9,0
"2020-05-09 07:28:21+00",27.5,29.5,,37.6,-955,802,66,1008.05,37.7,0
"2020-05-09 07:33:21+00",26.7,29.7,,37.4,-877,805,81,1008.18,37.6,0
"2020-05-09 07:38:21+00",22.5,27.5,,37.6,-779,634,106,1008.47,37.6,0
"2020-05-09 07:43:21+00",24.8,28.8,,37.6,-865,706,54,1008.64,37.5,0
"2020-05-09 07:48:21+00",23.2,28.2,,37.2,-838,632,62,1008.75,37.3,0
"2020-05-09 07:53:21+00",21.6,24.6,,37.2,-839,516,64,1008.96,37.2,0
"2020-05-09 07:58:21+00",23.9,27.9,,37.3,-858,658,70,1009.05,37.1,0
"2020-05-09 08:03:21+00",24.3,27.3,,37,-894,659,48,1009.2,37,0
"2020-05-09 08:08:21+00",23.7,26.7,,36.9,-901,584,58,1009.38,36.9,0
"2020-05-09 08:13:21+00",26.3,28.3,,36.9,-932,726,35,1009.41,36.8,0
"2020-05-09 08:18:21+00",23.0,28.0,,36.9,-898,566,74,1009.39,36.9,0
"2020-05-09 08:23:21+00",23.0,26.0,,36.7,-838,616,78,1009.38,36.7,0
"2020-05-09 08:28:21+00",26.5,30.5,,36.5,-1022,634,64,1009.45,36.4,0
"2020-05-09 08:33:21+00",27.7,30.7,,36.6,-1021,727,66,1009.61,36.4,0
"2020-05-09 08:38:21+00",25.7,28.7,,36.4,-983,631,56,1009.8,36.3,0
"2020-05-09 08:43:21+00",22.9,25.9,,36.5,-899,521,59,1009.95,36.3,0
"2020-05-09 08:48:21+00",25.5,28.5,,36.7,-1082,466,40,1010.02,36.4,0
"2020-05-09 08:53:21+00",24.2,26.2,,36.6,-925,599,64,1010.1,36.4,0
"2020-05-09 08:58:21+00",25.4,28.4,,36.7,-1013,533,69,1010.13,36.5,0
"2020-05-09 09:03:21+00",22.9,28.9,,36.9,-928,462,74,1010.19,36.5,0
"2020-05-09 09:08:21+00",26.6,30.6,,36.7,-1042,638,76,1010.23,36.4,0
"2020-05-09 09:13:21+00",25.5,28.5,,36.4,-1011,541,38,1010.42,36.2,0
"2020-05-09 09:18:21+00",25.0,30.0,,36.5,-1029,436,61,1010.51,36.1,0
"2020-05-09 09:23:21+00",25.7,28.7,,36.6,-1031,587,46,1010.71,36.2,0
"2020-05-09 09:28:21+00",23.8,27.8,,36.4,-916,527,103,1010.68,36,0
"2020-05-09 09:33:21+00",26.1,30.1,,36.4,-1015,579,86,1010.74,36,0
"2020-05-09 09:38:21+00",22.7,26.7,,36.4,-882,528,77,1010.83,36,0
"2020-05-09 09:43:21+00",26.7,29.7,,36.2,-1100,524,56,1010.84,35.9,0
"2020-05-09 09:48:21+00",26.4,30.4,,36.1,-1050,574,56,1011.02,35.7,0
"2020-05-09 09:53:21+00",29.4,34.4,,36,-1142,671,104,1011.05,35.6,0
"2020-05-09 09:58:21+00",28.0,32.0,,36,-1062,705,88,1011.25,35.6,0
"2020-05-09 10:03:21+00",28.3,32.3,,36.1,-1177,625,58,1011.33,35.5,0
"2020-05-09 10:08:21+00",25.6,30.6,,36.1,-953,696,86,1011.44,35.6,0
"2020-05-09 10:13:21+00",24.2,27.2,,36.1,-959,546,67,1011.59,35.7,0
"2020-05-09 10:18:21+00",25.6,30.6,,35.8,-999,597,67,1011.71,35.7,0
"2020-05-09 10:23:21+00",27.9,31.9,,35.8,-1105,638,47,1011.66,35.7,0
"2020-05-09 10:28:21+00",25.2,32.2,,35.8,-1035,491,51,1011.75,35.8,0
"2020-05-09 10:33:21+00",29.4,32.4,,35.9,-1151,673,61,1011.83,35.9,0
"2020-05-09 10:38:21+00",27.8,32.8,,35.8,-1055,674,79,1011.93,35.9,0
"2020-05-09 10:43:21+00",26.9,30.9,,35.7,-1082,550,51,1012.05,36,0
"2020-05-09 10:48:21+00",23.3,27.3,,35.8,-937,520,69,1012.15,36.1,0
"2020-05-09 10:53:21+00",27.3,31.3,,35.7,-1051,635,48,1012.2,36.3,0
"2020-05-09 10:58:21+00",26.3,30.3,,35.8,-1067,564,40,1012.25,36.3,0
"2020-05-09 11:03:21+00",25.7,32.7,,36,-1030,553,62,1012.29,36.5,0
"2020-05-09 11:08:21+00",26.8,30.8,,36,-1115,533,70,1012.31,36.5,0
"2020-05-09 11:13:21+00",26.5,31.5,,35.8,-1029,572,64,1012.43,36.5,0
"2020-05-09 11:18:21+00",26.1,29.1,,36.2,-1079,512,68,1012.39,36.9,0
"2020-05-09 11:23:21+00",22.4,26.4,,36.4,-870,516,111,1012.49,37,0
"2020-05-09 11:28:21+00",28.0,31.0,,36.2,-1024,699,84,1012.4,37.1,0
"2020-05-09 11:33:21+00",27.8,31.8,,36.2,-1042,705,54,1012.39,37.2,0
"2020-05-09 11:38:21+00",29.9,31.9,,36.4,-1006,891,60,1012.28,37.4,0
"2020-05-09 11:43:21+00",27.4,30.4,,36.3,-991,760,75,1012.21,37.4,0
"2020-05-09 11:48:21+00",25.0,28.0,,36.6,-944,619,85,1012.18,37.6,0
"2020-05-09 11:53:21+00",33.8,39.8,,36.5,-1299,822,52,1012.16,37.6,0
"2020-05-09 11:58:21+00",32.6,40.6,,36.7,-1280,773,77,1012.07,37.6,0
"2020-05-09 12:03:21+00",34.3,40.3,,36.7,-1309,828,61,1012.13,37.7,0
"2020-05-09 12:08:21+00",33.1,37.1,,36.5,-1184,906,65,1012.38,37.6,0
"2020-05-09 12:13:21+00",24.9,30.9,,36.8,-875,677,70,1012.49,37.9,0
"2020-05-09 12:18:21+00",24.8,27.8,,37.1,-881,665,90,1012.44,38.2,0
"2020-05-09 12:23:21+00",24.2,29.2,,37.1,-880,653,66,1012.47,38.3,0
"2020-05-09 12:28:21+00",23.8,34.8,,37.1,-884,628,46,1012.5,38.4,0
"2020-05-09 12:33:21+00",34.6,39.6,,37.1,-1389,722,81,1012.35,38.5,0
"2020-05-09 12:38:21+00",32.0,37.0,,36.6,-1246,752,99,1012.36,38.3,0
"2020-05-09 12:43:21+00",29.3,34.3,,37.1,-910,921,68,1012.54,38.5,0
"2020-05-09 12:48:21+00",23.6,30.6,,37.6,-837,698,94,1012.62,38.9,0
"2020-05-09 12:53:21+00",24.6,29.6,,37.3,-853,714,62,1012.6,38.9,0
"2020-05-09 12:58:21+00",29.9,35.9,,37.2,-1103,769,70,1012.66,38.9,0
"2020-05-09 13:03:21+00",26.4,32.4,,37.2,-956,720,95,1012.7,38.9,0
"2020-05-09 13:08:21+00",26.3,28.3,,37.3,-900,762,63,1012.83,38.9,0
"2020-05-09 13:13:21+00",29.5,32.5,,37.4,-937,930,72,1012.79,39,0
"2020-05-09 13:18:21+00",31.3,35.3,,37.3,-1227,742,55,1012.73,39,0
"2020-05-09 13:23:21+00",27.6,31.6,,37.7,-876,845,82,1012.89,39.3,0
"2020-05-09 13:28:21+00",22.6,28.6,,38.2,-890,527,100,1012.97,39.6,0
"2020-05-09 13:33:21+00",25.9,28.9,,37.9,-770,876,74,1013.04,39.9,0
"2020-05-09 13:38:21+00",26.2,29.2,,37.9,-1043,524,59,1012.94,39.8,0
"2020-05-09 13:43:21+00",28.9,32.9,,38.2,-1037,800,80,1012.98,40.1,0
"2020-05-09 13:48:21+00",27.3,32.3,,38.3,-1049,610,58,1013.03,40.1,0
"2020-05-09 13:53:21+00",30.3,34.3,,38.2,-1114,832,62,1012.96,40.3,0
"2020-05-09 13:58:21+00",30.2,34.2,,38.6,-1107,794,65,1012.94,40.5,0
"2020-05-09 14:03:21+00",29.1,33.1,,38.8,-1079,737,68,1012.92,40.7,0
"2020-05-09 14:08:21+00",26.1,30.1,,38.9,-978,682,79,1013.01,40.8,0
"2020-05-09 14:13:21+00",30.4,34.4,,39,-1066,902,74,1013.09,40.9,0
"2020-05-09 14:18:21+00",23.6,28.6,,39,-807,658,44,1013.23,41.1,0
"2020-05-09 14:23:21+00",28.1,31.1,,39.6,-930,852,70,1013.2,41.4,0
"2020-05-09 14:28:21+00",31.3,35.3,,39.3,-1180,748,42,1013.15,41.5,0
"2020-05-09 14:33:21+00",25.5,30.5,,39.5,-904,680,51,1013.22,41.4,0
"2020-05-09 14:38:21+00",20.9,24.9,,39.7,-708,627,91,1013.37,41.5,0
"2020-05-09 14:43:21+00",20.7,25.7,,39.8,-651,640,43,1013.38,41.6,0.1
"2020-05-09 14:48:21+00",26.3,31.3,,40.5,-1078,494,96,1013.39,42.2,0
"2020-05-09 14:53:21+00",26.4,31.4,,40.4,-1045,520,73,1013.4,42.3,1.8
"2020-05-09 14:58:21+00",28.6,33.6,,40,-1059,703,48,1013.4,42.3,2.2
"2020-05-09 15:03:21+00",22.2,25.2,,40,-800,623,56,1013.49,42.2,3.2
"2020-05-09 15:08:21+00",21.6,24.6,,40.5,-907,429,64,1013.45,42.4,3.2
"2020-05-09 15:13:21+00",23.9,26.9,,40.7,-1021,405,82,1013.51,42.7,3.3
"2020-05-09 15:18:21+00",29.0,31.0,,40.3,-1144,641,69,1013.44,42.8,2.7
"2020-05-09 15:23:21+00",25.4,30.4,,40.6,-976,612,62,1013.48,42.8,3.7
"2020-05-09 15:28:21+00",21.1,24.1,,40.8,-771,546,57,1013.52,42.9,3.7
"2020-05-09 15:33:21+00",22.4,26.4,,40.9,-890,482,37,1013.44,43.1,4.5
"2020-05-09 15:38:21+00",20.5,23.5,,40.7,-809,428,13,1013.41,43.3,4.7
"2020-05-09 15:43:21+00",24.9,29.9,,41,-968,528,39,1013.41,43.4,4.2
"2020-05-09 15:48:21+00",28.1,33.1,,41.2,-1262,266,40,1013.32,43.7,7.2
"2020-05-09 15:53:21+00",24.1,26.1,,41.5,-1069,255,77,1013.39,43.9,14
"2020-05-09 15:58:21+00",22.5,27.5,,41.6,-1022,224,43,1013.3,44.1,18.9
"2020-05-09 16:03:21+00",23.8,27.8,,42.1,-962,468,76,1013.38,44.3,23.1
"2020-05-09 16:08:21+00",24.2,29.2,,41.9,-1032,363,68,1013.4,44.2,26.1
"2020-05-09 16:13:21+00",26.7,33.7,,42.1,-1110,440,76,1013.23,44.5,31
"2020-05-09 16:18:21+00",22.4,25.4,,42.1,-874,469,69,1013.3,44.4,27.5
"2020-05-09 16:23:21+00",22.4,26.4,,42.1,-791,607,43,1013.42,44.6,30.3
"2020-05-09 16:28:21+00",28.9,33.9,,42.3,-1302,282,48,1013.28,44.8,32.2
"2020-05-09 16:33:21+00",25.4,29.4,,42.7,-1047,511,65,1013.31,44.8,27.7
"2020-05-09 16:38:21+00",22.7,26.7,,42.7,-848,577,71,1013.36,45,22
"2020-05-09 16:43:21+00",26.2,29.2,,42.7,-1156,312,71,1013.41,45.2,28.4
"2020-05-09 16:48:21+00",24.2,28.2,,43.2,-1070,265,87,1013.38,45.4,0
"2020-05-09 16:53:21+00",26.8,28.8,,43,-1188,193,45,1013.29,45.7,39.1
"2020-05-09 16:58:21+00",28.2,32.2,,43.5,-1163,481,67,1013.33,46,38.4
"2020-05-09 17:03:21+00",26.0,30.0,,43.5,-1104,466,38,1013.23,46.1,33.6
"2020-05-09 17:08:21+00",25.5,31.5,,43.2,-1143,208,61,1013.22,46,31
"2020-05-09 17:13:21+00",29.4,33.4,,43.6,-1262,385,56,1013.16,46.1,28.8
"2020-05-09 17:18:21+00",21.3,24.3,,43.6,-869,431,63,1013.11,46.2,54.1
"2020-05-09 17:23:21+00",25.7,28.7,,43.7,-1086,417,48,1013.01,46.3,26.4
"2020-05-09 17:28:21+00",20.5,23.5,,43.9,-906,197,46,1012.99,46.6,15.6
"2020-05-09 17:33:21+00",26.7,30.7,,44,-1160,396,69,1012.89,46.3,45.8
"2020-05-09 17:38:21+00",22.1,26.1,,43.9,-934,309,46,1013.05,46.6,35
"2020-05-09 17:43:21+00",27.7,31.7,,44.1,-1092,635,49,1013.05,46.6,15.6
"2020-05-09 17:48:21+00",25.4,29.4,,44.1,-1102,274,73,1013.16,46.5,39.2
"2020-05-09 17:53:21+00",28.2,32.2,,44.6,-1152,536,80,1013.08,47.2,16.9
"2020-05-09 17:58:21+00",26.9,29.9,,44.5,-1147,400,100,1013.16,47.3,11.8
"2020-05-09 18:03:21+00",22.2,26.2,,44.5,-923,420,85,1013.1,47.4,6.5
"2020-05-09 18:08:21+00",26.7,34.7,,45.1,-1122,578,98,1013.04,47.7,6.3
"2020-05-09 18:13:21+00",26.5,29.5,,45.1,-1011,617,70,1013.01,47.6,5
"2020-05-09 18:18:21+00",29.7,34.7,,45.2,-1217,519,80,1013.02,47.6,0
"2020-05-09 18:23:21+00",29.3,33.3,,44.7,-1088,710,73,1013.09,47.4,0
"2020-05-09 18:28:21+00",31.6,38.6,,45,-1385,466,72,1013.09,47.3,0
"2020-05-09 18:33:21+00",31.9,35.9,,44.8,-1331,540,63,1013.19,46.9,12.5
"2020-05-09 18:38:21+00",23.7,27.7,,44.6,-1004,394,91,1013.28,47.2,0
"2020-05-09 18:43:21+00",31.5,34.5,,44.5,-1268,651,65,1013.29,46.6,0
"2020-05-09 18:48:21+00",32.0,39.0,,44.3,-1304,614,103,1013.32,46.1,0
"2020-05-09 18:53:21+00",30.4,36.4,,44.4,-1259,639,67,1013.34,45.8,0
"2020-05-09 18:58:21+00",29.2,35.2,,44.4,-1152,620,89,1013.57,46,16.2
"2020-05-09 19:03:21+00",26.5,30.5,,44.5,-1136,401,54,1013.57,46.1,0
"2020-05-09 19:08:21+00",28.3,33.3,,44.4,-1222,429,56,1013.58,45.9,0
"2020-05-09 19:13:21+00",30.6,33.6,,44.7,-1236,617,92,1013.55,46.3,1.1
"2020-05-09 19:18:21+00",28.2,33.2,,44.6,-1239,325,73,1013.67,46.4,0
"2020-05-09 19:23:21+00",28.3,34.3,,44.8,-1251,305,60,1013.68,46.7,0
"2020-05-09 19:28:21+00",31.2,34.2,,45,-1393,171,60,1013.63,47,0
"2020-05-09 19:33:21+00",33.6,36.6,,45.2,-1463,388,67,1013.64,47.6,0
"2020-05-09 19:38:21+00",31.1,38.1,,44.7,-1326,503,80,1013.75,46.9,0
"2020-05-09 19:43:21+00",25.3,30.3,,44.6,-995,567,56,1013.78,46.6,0
"2020-05-09 19:48:21+00",26.0,32.0,,44.6,-1041,507,53,1013.77,46.5,0
"2020-05-09 19:53:21+00",30.2,37.2,,44.8,-1262,424,103,1013.63,46.4,0
"2020-05-09 19:58:21+00",21.9,26.9,,45.2,-887,429,67,1013.79,46.6,0
"2020-05-09 20:03:21+00",27.7,35.7,,45,-1165,446,77,1013.64,46.5,0
"2020-05-09 20:08:21+00",31.1,35.1,,45.1,-1317,472,48,1013.57,47,0
"2020-05-09 20:13:21+00",30.7,33.7,,44.9,-1343,365,58,1013.63,47.1,0
"2020-05-09 20:18:21+00",26.4,30.4,,45.5,-1101,460,101,1013.64,47.3,0
"2020-05-09 20:23:21+00",28.3,32.3,,45.2,-1202,497,84,1013.72,46.9,0
"2020-05-09 20:28:21+00",26.9,31.9,,45.4,-1164,320,81,1013.83,47,0
"2020-05-09 20:33:21+00",33.9,39.9,,45.8,-1469,453,70,1013.72,48.1,0
"2020-05-09 20:38:21+00",30.4,35.4,,45.9,-1309,433,59,1013.63,48.1,0
"2020-05-09 20:43:21+00",31.1,37.1,,46.1,-1333,464,70,1013.69,48.1,0
"2020-05-09 20:48:21+00",31.1,36.1,,46.3,-1357,407,62,1013.77,47.8,0
"2020-05-09 20:53:21+00",27.5,33.5,,45.9,-1123,554,104,1013.98,47.1,0
"2020-05-09 20:58:21+00",27.3,31.3,,46,-1063,658,66,1014,46.6,0
"2020-05-09 21:03:21+00",25.7,31.7,,46.3,-1005,602,80,1014,46.7,0
"2020-05-09 21:08:21+00",23.7,27.7,,46.3,-1028,416,71,1014.24,46.7,0
"2020-05-09 21:13:21+00",26.4,29.4,,46.5,-1159,310,91,1014.24,46.7,0
"2020-05-09 21:18:21+00",22.4,26.4,,46.5,-897,461,69,1014.32,46.9,0
"2020-05-09 21:23:21+00",25.8,28.8,,46.7,-992,634,87,1014.36,47.5,0
"2020-05-09 21:28:21+00",23.3,29.3,,46.8,-931,470,136,1014.24,47.7,0
"2020-05-09 21:33:21+00",26.0,32.0,,46.5,-1089,376,81,1014.35,47.3,0
"2020-05-09 21:38:21+00",29.0,33.0,,46.8,-1286,223,64,1014.28,47.3,0
"2020-05-09 21:43:21+00",33.8,38.8,,46.3,-1322,752,70,1014.3,47.7,0
"2020-05-09 21:48:21+00",22.9,26.9,,46.6,-1014,161,69,1014.5,47.9,0
"2020-05-09 21:53:21+00",24.9,29.9,,46.7,-1120,212,57,1014.36,48.3,0
"2020-05-09 21:58:21+00",19.4,22.4,,46.9,-852,249,103,1014.49,48.1,0
"2020-05-09 22:03:21+00",33.4,39.4,,47,-1505,133,70,1014.33,48.1,0
"2020-05-09 22:08:21+00",29.6,32.6,,46.8,-1329,188,37,1014.59,47.4,0
"2020-05-09 22:13:21+00",27.4,32.4,,46.9,-1218,210,83,1014.68,47.2,0
"2020-05-09 22:18:21+00",31.8,35.8,,47.2,-1398,160,77,1014.65,47.7,0
"2020-05-09 22:23:21+00",32.4,36.4,,47.3,-1449,53,50,1014.68,48.2,0
"2020-05-09 22:28:21+00",29.7,33.7,,47.3,-1324,95,92,1014.66,48.5,0
"2020-05-09 22:33:21+00",34.1,40.1,,47.3,-1530,329,121,1014.7,48.6,0
"2020-05-09 22:38:21+00",34.9,44.9,,46.9,-1522,424,136,1014.77,48,0
"2020-05-09 22:43:21+00",31.6,34.6,,46.9,-1386,335,63,1014.97,47.5,0
"2020-05-09 22:48:21+00",35.8,39.8,,46.6,-1611,182,76,1015.01,47,0
"2020-05-09 22:53:21+00",31.8,35.8,,46.8,-1407,368,57,1015.27,46.8,0
"2020-05-09 22:58:21+00",34.5,39.5,,46.5,-1505,571,70,1015.31,46.4,0
"2020-05-09 23:03:21+00",35.8,39.8,,46.4,-1563,470,71,1015.46,46.5,0
"2020-05-09 23:08:21+00",30.3,35.3,,46.6,-1345,408,51,1015.67,46.7,0
"2020-05-09 23:13:21+00",32.2,38.2,,46.5,-1395,478,77,1015.77,46.6,0
"2020-05-09 23:18:21+00",36.7,44.7,,46.1,-1570,562,72,1015.8,46.2,0
"2020-05-09 23:23:21+00",37.2,42.2,,45.9,-1555,676,106,1016.04,45.9,0
"2020-05-09 23:28:21+00",34.9,39.9,,45.6,-1427,663,80,1016.14,45.5,0
"2020-05-09 23:33:21+00",38.6,42.6,,45.6,-1663,594,95,1016.1,45.5,0
"2020-05-09 23:38:21+00",29.7,34.7,,45.5,-1234,514,98,1016.38,45.3,0
"2020-05-09 23:43:21+00",31.2,37.2,,45.5,-1316,481,93,1016.51,45.3,0
"2020-05-09 23:48:21+00",32.0,36.0,,45.4,-1390,496,48,1016.61,45.1,0
"2020-05-09 23:53:21+00",28.4,32.4,,45.3,-1247,343,74,1016.83,45.1,0
"2020-05-09 23:58:21+00",27.7,30.7,,45.1,-1213,371,66,1017,45,0
